Weather History for KORB - November, 2012

Change the Weather History Date:

Monday, November 19, 2012

  Actual Average Record
Temperature  
Mean Temperature 40 °F -  
Max Temperature 51 °F 29 °F 51 °F (2012)
Min Temperature 30 °F 15 °F 0 °F (1996)
Degree Days  
Heating Degree Days 24    
Moisture  
Dew Point 32 °F    
Average Humidity 67    
Maximum Humidity 93    
Minimum Humidity 50    
Precipitation  
Precipitation 0.00 in - - ()
Sea Level Pressure  
Sea Level Pressure 29.98 in    
Wind  
Wind Speed 6 mph (SSW)    
Max Wind Speed 9 mph    
Max Gust Speed -    
Visibility 10 miles    
Events Rain , Thunderstorm    
Averages and records for this station are not official NWS values.
T = Trace of Precipitation, MM = Missing Value Source: NWS Daily Summary

Daily Weather History Graph

Daily Weather History Graph

Search for Another Location

Airport or City:

Trip Planner

Search our weather history database for the weather conditions in past years. The results will help you decide how hot, cold, wet, or windy it might be!

Date:

Astronomy

Nov. 19, 2012 Rise Set
Actual Time 7:24 AM CST 4:28 PM CST
Civil Twilight 6:50 AM CST 5:03 PM CST
Nautical Twilight 6:12 AM CST 5:41 PM CST
Astronomical Twilight 5:35 AM CST 6:18 PM CST
Moon 12:17 PM CST (11/19) 11:09 PM CST (11/19)
Length of Visible Light 10h 13m
Length of Day
9h 04m
Waxing Crescent, 41% of the Moon is Illuminated
Nov 19
Waxing Crescent
Nov 20
First Quarter
Nov 28
Full
Dec 6
Last Quarter
Dec 13
New

Hourly Weather History & Observations

Time (CST) Temp. Windchill Dew Point Humidity Pressure Visibility Wind Dir Wind Speed Gust Speed Precip Events Conditions
12:13 AM 39.2 °F 33.6 °F 30.2 °F 70% 29.98 in 10.0 mi SSE 8.1 mph - N/A   Clear
12:33 AM 39.2 °F 33.6 °F 30.2 °F 70% 29.98 in 10.0 mi SSE 8.1 mph - N/A   Clear
12:53 AM 41.0 °F 36.4 °F 30.2 °F 65% 29.97 in 10.0 mi SSE 6.9 mph - N/A   Clear
1:13 AM 41.0 °F 36.4 °F 30.2 °F 65% 29.97 in 10.0 mi SSE 6.9 mph - N/A   Clear
1:33 AM 41.0 °F 36.4 °F 30.2 °F 65% 29.97 in 10.0 mi SSE 6.9 mph - N/A   Clear
1:53 AM 41.0 °F 36.4 °F 30.2 °F 65% 29.97 in 10.0 mi SSE 6.9 mph - N/A   Scattered Clouds
2:13 AM 41.0 °F 37.1 °F 30.2 °F 65% 29.97 in 10.0 mi SSE 5.8 mph - N/A   Mostly Cloudy
2:33 AM 41.0 °F 38.0 °F 30.2 °F 65% 29.98 in 10.0 mi SSE 4.6 mph - N/A   Mostly Cloudy
2:53 AM 41.0 °F 38.0 °F 30.2 °F 65% 29.98 in 10.0 mi SSE 4.6 mph - N/A   Mostly Cloudy
3:13 AM 42.8 °F 38.0 °F 30.2 °F 61% 29.98 in 10.0 mi SSE 8.1 mph - N/A   Scattered Clouds
3:33 AM 42.8 °F - 30.2 °F 61% 29.98 in 10.0 mi Calm Calm - N/A   Scattered Clouds
3:53 AM 42.8 °F 40.1 °F 30.2 °F 61% 29.97 in 10.0 mi SE 4.6 mph - N/A   Scattered Clouds
4:13 AM 42.8 °F 40.1 °F 32.0 °F 66% 29.97 in 10.0 mi SE 4.6 mph - N/A   Scattered Clouds
4:33 AM 42.8 °F 39.3 °F 32.0 °F 66% 29.96 in 10.0 mi SSE 5.8 mph - N/A   Scattered Clouds
4:53 AM 42.8 °F 40.1 °F 32.0 °F 66% 29.96 in 10.0 mi SSE 4.6 mph - N/A   Scattered Clouds
5:13 AM 42.8 °F 39.3 °F 32.0 °F 66% 29.97 in 10.0 mi SSE 5.8 mph - N/A   Mostly Cloudy
5:33 AM 42.8 °F 38.6 °F 32.0 °F 66% 29.97 in 10.0 mi SSE 6.9 mph - N/A   Scattered Clouds
5:53 AM 42.8 °F 38.6 °F 30.2 °F 61% 29.96 in 10.0 mi SSE 6.9 mph - N/A   Clear
6:13 AM 42.8 °F 38.6 °F 30.2 °F 61% 29.96 in 10.0 mi SSE 6.9 mph - N/A   Clear
6:33 AM 42.8 °F 38.6 °F 30.2 °F 61% 29.97 in 10.0 mi SSE 6.9 mph - N/A   Clear
6:53 AM 42.8 °F 38.0 °F 30.2 °F 61% 29.96 in 10.0 mi SSE 8.1 mph - N/A   Clear
7:33 AM 41.0 °F 36.4 °F 30.2 °F 65% 29.96 in 10.0 mi SSE 6.9 mph - N/A   Scattered Clouds
7:53 AM 41.0 °F 36.4 °F 30.2 °F 65% 29.97 in 10.0 mi SSE 6.9 mph - N/A   Scattered Clouds
8:13 AM 42.8 °F 38.6 °F 30.2 °F 61% 29.97 in 10.0 mi SSE 6.9 mph - N/A   Mostly Cloudy
8:34 AM 42.8 °F 38.0 °F 30.2 °F 61% 29.97 in 10.0 mi South 8.1 mph - N/A   Scattered Clouds
8:53 AM 42.8 °F 38.6 °F 30.2 °F 61% 29.97 in 10.0 mi SSE 6.9 mph - N/A   Mostly Cloudy
9:14 AM 42.8 °F 37.5 °F 30.2 °F 61% 29.96 in - South 9.2 mph - N/A Thunderstorm Thunderstorm
9:33 AM 46.4 °F 42.4 °F 32.0 °F 57% 29.97 in 10.0 mi South 8.1 mph - N/A Thunderstorm Scattered Clouds
9:53 AM 44.6 °F 40.7 °F 33.8 °F 66% 29.97 in 10.0 mi South 6.9 mph - N/A Rain , Thunderstorm Light Thunderstorms and Rain
10:13 AM 44.6 °F 42.2 °F 35.6 °F 71% 29.98 in 10.0 mi South 4.6 mph - N/A   Light Drizzle
10:33 AM 46.4 °F 45.2 °F 35.6 °F 66% 29.98 in 10.0 mi SSW 3.5 mph - N/A   Scattered Clouds
10:53 AM 46.4 °F 43.5 °F 35.6 °F 66% 29.97 in 10.0 mi South 5.8 mph - N/A Thunderstorm Scattered Clouds
11:13 AM 46.4 °F - 33.8 °F 62% 29.97 in 10.0 mi Calm Calm - N/A   Mostly Cloudy
11:33 AM 46.4 °F 44.3 °F 35.6 °F 66% 29.96 in 10.0 mi South 4.6 mph - N/A   Mostly Cloudy
11:53 AM 46.4 °F 42.9 °F 33.8 °F 62% 29.95 in 10.0 mi South 6.9 mph - N/A   Mostly Cloudy
12:13 PM 48.2 °F - 33.8 °F 58% 29.95 in 10.0 mi South 5.8 mph - N/A   Scattered Clouds
12:33 PM 48.2 °F - 35.6 °F 62% 29.95 in 10.0 mi South 5.8 mph - N/A   Mostly Cloudy
1:14 PM 51.8 °F - 33.8 °F 50% 29.94 in 10.0 mi South 5.8 mph - N/A   Clear
1:33 PM 51.8 °F - 33.8 °F 50% 29.93 in 10.0 mi South 4.6 mph - N/A   Clear
1:53 PM 51.8 °F - 33.8 °F 50% 29.94 in 10.0 mi SW 5.8 mph - N/A   Clear
2:14 PM 51.8 °F - 33.8 °F 50% 29.94 in 10.0 mi South 5.8 mph - N/A   Clear
2:33 PM 51.8 °F - 33.8 °F 50% 29.94 in 10.0 mi South 6.9 mph - N/A   Clear
2:54 PM 50.0 °F - 33.8 °F 54% 29.95 in 10.0 mi SW 4.6 mph - N/A   Scattered Clouds
3:13 PM 51.8 °F - 35.6 °F 54% 29.96 in 10.0 mi Calm Calm - N/A   Clear
3:53 PM 50.0 °F - 35.6 °F 58% 29.97 in 10.0 mi Calm Calm - N/A   Clear
4:13 PM 50.0 °F - 35.6 °F 58% 29.97 in 10.0 mi Calm Calm - N/A   Clear
4:33 PM 48.2 °F - 35.6 °F 62% 29.97 in 10.0 mi Calm Calm - N/A   Scattered Clouds
4:53 PM 48.2 °F - 33.8 °F 58% 29.98 in 10.0 mi Calm Calm - N/A   Clear
5:13 PM 46.4 °F - 33.8 °F 62% 29.98 in 10.0 mi Calm Calm - N/A   Clear
5:33 PM 44.6 °F 41.4 °F 33.8 °F 66% 29.99 in 10.0 mi NW 5.8 mph - N/A   Clear
5:53 PM 44.6 °F 41.4 °F 33.8 °F 66% 29.99 in 10.0 mi NW 5.8 mph - N/A   Clear
6:13 PM 42.8 °F 40.1 °F 33.8 °F 70% 29.99 in 10.0 mi NW 4.6 mph - N/A   Clear
6:33 PM 41.0 °F 38.0 °F 33.8 °F 76% 30.00 in 10.0 mi WNW 4.6 mph - N/A   Clear
6:53 PM 41.0 °F 36.4 °F 33.8 °F 76% 30.01 in 10.0 mi WNW 6.9 mph - N/A   Clear
7:13 PM 39.2 °F 33.0 °F 33.8 °F 81% 30.02 in 10.0 mi WNW 9.2 mph - N/A   Clear
7:33 PM 39.2 °F 35.0 °F 33.8 °F 81% 30.01 in 10.0 mi NW 5.8 mph - N/A   Clear
7:53 PM 37.4 °F 32.1 °F 32.0 °F 81% 30.01 in 10.0 mi NW 6.9 mph - N/A   Clear
8:13 PM 37.4 °F 34.9 °F 30.2 °F 75% 30.02 in 10.0 mi NW 3.5 mph - N/A   Clear
8:33 PM 35.6 °F 32.8 °F 30.2 °F 81% 30.02 in 10.0 mi NW 3.5 mph - N/A   Clear
9:13 PM 35.6 °F 29.9 °F 30.2 °F 81% 30.03 in 10.0 mi NW 6.9 mph - N/A   Clear
9:33 PM 35.6 °F 30.7 °F 30.2 °F 81% 30.04 in 10.0 mi NW 5.8 mph - N/A   Clear
9:53 PM 33.8 °F 28.6 °F 30.2 °F 87% 30.04 in 10.0 mi NW 5.8 mph - N/A   Clear
10:13 PM 33.8 °F 29.6 °F 28.4 °F 81% 30.04 in 10.0 mi NW 4.6 mph - N/A   Clear
10:33 PM 32.0 °F 26.4 °F 28.4 °F 87% 30.04 in 10.0 mi NW 5.8 mph - N/A   Clear
10:53 PM 30.2 °F 26.7 °F 28.4 °F 93% 30.04 in 10.0 mi NW 3.5 mph - N/A   Clear
11:13 PM 30.2 °F 26.7 °F 26.6 °F 86% 30.05 in 7.0 mi NW 3.5 mph - N/A   Clear
11:33 PM 30.2 °F 25.4 °F 28.4 °F 93% 30.05 in 10.0 mi NW 4.6 mph - N/A   Clear
11:53 PM 30.2 °F 26.7 °F 26.6 °F 86% 30.05 in 7.0 mi NW 3.5 mph - N/A   Clear